Flag for Colombia Weather past 2 weeks in Medellin, Colombia

Now
75 °F

Mild.


Feels Like: 78 °F
Forecast: N/A
Wind: 17 mph from Southeast

Location: Rionegro / J. M. Cordova

Current Time: Aug 2, 2015 at 4:05:27 PM

Latest Report: Aug 2, 2015 at 3:00 PM


Visibility: N/A

Pressure: 30.20 "Hg (25.48 "Hg at 1479m altitude)

Humidity: 41%

Dew point: 50 °F

Location of MedellinLocation

Historic Weather in Medellin — Graph

°F

Medellin temperature yesterday

Maximum temperature yesterday: 73 °F (at 2:00 PM)
Minimum temperature yesterday: 55 °F (at 7:00 AM)
Average temperature yesterday: 65 °F

Past Weeks' High & Low Weather Summary

 TemperatureHumidityPressure
High75 °F (Jul 25, 12:00 PM)100% (Jul 19, 7:00 AM)30.39 "Hg (Jul 19, 7:00 AM)
Low50 °F (Jul 25, 6:00 AM)39% (Jul 25, 12:00 PM)30.17 "Hg (Jul 27, 4:00 PM)
Average63 °F76%30.28 "Hg
* Reported Jul 18 3:00 PM — Aug 2 3:00 PM, Medellin, Weather by CustomWeather, © 2015

Note: Actual official high and low records may vary slightly from our data, if they occured in-between our weather recording intervals... More about our weather records

Advertising

Medellin weather history for previous 24 hours

 ConditionsComfort  
Time TempWeatherWind HumidityBarometerVisibility
3:00 PM
Sun, Aug 2
75 °FMild.17 mph41%30.20 "HgN/A
2:00 PM75 °FPartly sunny.14 mph44%30.22 "HgN/A
1:00 PM73 °FPartly sunny.18 mph44%30.24 "HgN/A
12:00 PM72 °FPartly sunny.16 mph47%30.26 "HgN/A
11:00 AM70 °FPartly sunny.7 mph57%30.27 "HgN/A
10:00 AM66 °FBroken clouds.17 mph64%30.29 "HgN/A
9:00 AM64 °FBroken clouds.3 mph73%30.29 "HgN/A
8:00 AM61 °FBroken clouds.2 mph88%30.28 "HgN/A
7:00 AM59 °FBroken clouds.No wind88%30.27 "Hg5 mi
6:00 AM57 °FPartly sunny.No wind88%30.26 "HgN/A
5:00 AM59 °FPassing clouds.No wind88%30.23 "HgN/A
4:00 AM59 °FPassing clouds.No wind88%30.23 "Hg5 mi
3:00 AM59 °FPassing clouds.No wind94%30.26 "Hg4 mi
2:00 AM59 °FPassing clouds.No wind94%30.26 "Hg4 mi
1:00 AM61 °FPassing clouds.No wind88%30.28 "Hg5 mi
12:00 AM61 °FPartly cloudy.No wind88%30.28 "HgN/A
11:00 PM
Sat, Aug 1
61 °FPassing clouds.No wind88%30.29 "HgN/A
10:00 PM61 °FPassing clouds.No wind88%30.28 "HgN/A
9:00 PM63 °FPassing clouds.5 mph83%30.26 "HgN/A
7:00 PM66 °FPassing clouds.No wind68%30.22 "HgN/A
6:00 PM68 °FScattered clouds.14 mph60%30.22 "HgN/A
5:00 PM72 °FScattered clouds.12 mph50%30.20 "HgN/A
4:00 PM72 °FScattered clouds.12 mph47%30.21 "HgN/A
Weather by CustomWeather, © 2015

See weather overviewHow to use our weather pages